Plattsmouth, NE

1:46 AM CDT on June 25, 2017 (GMT -0500)
Plattsmouth Municipal

Weather History for KPMV - February, 2013

Change the Weather History Date:

Tuesday, February 5, 2013

  Actual Average (KOFF) Record (KOFF)
Temperature  
Mean Temperature 38 °F -  
Max Temperature 49 °F 35 °F 64 °F (1999)
Min Temperature 26 °F 17 °F -18 °F (2015)
Degree Days  
Heating Degree Days 28    
Moisture  
Dew Point 28 °F    
Average Humidity 70    
Maximum Humidity 94    
Minimum Humidity 44    
Precipitation  
Precipitation 0.03 in - - ()
Sea Level Pressure  
Sea Level Pressure 29.95 in    
Wind  
Wind Speed 7 mph (West)    
Max Wind Speed 17 mph    
Max Gust Speed 28 mph    
Visibility 9 miles    
Events      
Averages and records for this station are not official NWS values.
T = Trace of Precipitation, MM = Missing Value Source: NWS Daily Summary

Daily Weather History Graph

Daily Weather History Graph

Search for Another Location

Airport or City:

Trip Planner

Search our weather history database for the weather conditions in past years. The results will help you decide how hot, cold, wet, or windy it might be!

Date:

Astronomy

Feb. 05, 2013 Rise Set
Actual Time 7:29 AM CST 5:46 PM CST
Civil Twilight 7:00 AM CST 6:15 PM CST
Nautical Twilight 6:28 AM CST 6:47 PM CST
Astronomical Twilight 5:56 AM CST 7:19 PM CST
Moon 3:13 AM CST (2/5) 1:03 PM CST (2/5)
Length of Visible Light 11h 14m
Length of Day
10h 16m
Waning Crescent, 26% of the Moon is Illuminated
Feb 5
Waning Crescent
Feb 10
New
Feb 17
First Quarter
Feb 25
Full
Mar 4
Last Quarter

Hourly Weather History & Observations

Time (CST) Temp. Windchill Dew Point Humidity Pressure Visibility Wind Dir Wind Speed Gust Speed Precip Events Conditions
12:15 AM 27.0 °F 20.5 °F 24.4 °F 90% 29.88 in 7.0 mi SSW 5.8 mph - N/A   Overcast
12:35 AM 27.1 °F 23.2 °F 24.6 °F 90% 29.89 in 7.0 mi SSW 3.5 mph - N/A   Overcast
12:55 AM 27.3 °F 20.9 °F 24.6 °F 90% 29.89 in 7.0 mi SSW 5.8 mph - N/A   Overcast
1:15 AM 27.5 °F 22.2 °F 24.8 °F 90% 29.89 in 7.0 mi SSW 4.6 mph - N/A   Overcast
1:35 AM 27.5 °F 21.1 °F 24.8 °F 90% 29.88 in 7.0 mi SSW 5.8 mph - N/A   Overcast
1:55 AM 27.3 °F 20.9 °F 24.8 °F 90% 29.87 in 7.0 mi SSW 5.8 mph - N/A   Overcast
2:15 AM 27.3 °F 22.0 °F 24.8 °F 90% 29.87 in 7.0 mi SSW 4.6 mph - N/A   Overcast
2:35 AM 27.0 °F 23.0 °F 24.8 °F 92% 29.87 in 7.0 mi SSW 3.5 mph - N/A   Overcast
2:55 AM 26.6 °F 20.0 °F 24.6 °F 92% 29.87 in 7.0 mi SSW 5.8 mph - N/A   Scattered Clouds
3:15 AM 26.6 °F 21.2 °F 24.8 °F 93% 29.86 in 7.0 mi South 4.6 mph - N/A   Clear
3:35 AM 26.4 °F 19.8 °F 24.6 °F 93% 29.85 in 5.0 mi South 5.8 mph - N/A   Clear
3:55 AM 26.4 °F 17.3 °F 24.8 °F 94% 29.85 in 5.0 mi South 9.2 mph - N/A   Clear
4:15 AM 26.6 °F 16.8 °F 24.8 °F 93% 29.84 in 7.0 mi South 10.4 mph - N/A   Clear
4:35 AM 27.5 °F 18.6 °F 25.5 °F 92% 29.84 in 7.0 mi South 9.2 mph - N/A   Clear
4:55 AM 28.2 °F 18.3 °F 25.7 °F 90% 29.84 in 7.0 mi SSW 11.5 mph - N/A   Clear
5:15 AM 28.2 °F 19.5 °F 25.7 °F 90% 29.84 in 7.0 mi SSW 9.2 mph - N/A   Scattered Clouds
5:35 AM 28.4 °F 22.2 °F 25.7 °F 90% 29.84 in 7.0 mi SSW 5.8 mph - N/A   Scattered Clouds
5:55 AM 28.6 °F 22.4 °F 25.7 °F 89% 29.84 in 10.0 mi SW 5.8 mph - N/A   Mostly Cloudy
6:15 AM 28.4 °F 21.2 °F 25.5 °F 89% 29.85 in 10.0 mi WSW 6.9 mph - N/A   Scattered Clouds
6:35 AM 28.4 °F 22.2 °F 25.7 °F 90% 29.84 in 10.0 mi SW 5.8 mph - N/A   Mostly Cloudy
6:55 AM 29.3 °F 24.3 °F 26.4 °F 89% 29.86 in 10.0 mi West 4.6 mph - N/A   Overcast
7:15 AM 30.2 °F 22.6 °F 27.0 °F 88% 29.86 in 10.0 mi WSW 8.1 mph - N/A   Overcast
7:35 AM 30.7 °F 26.0 °F 27.0 °F 86% 29.86 in 10.0 mi WSW 4.6 mph - N/A   Scattered Clouds
7:55 AM 31.5 °F 24.9 °F 27.5 °F 85% 29.86 in 10.0 mi WSW 6.9 mph - N/A   Mostly Cloudy
8:15 AM 32.0 °F 26.4 °F 27.7 °F 84% 29.87 in 10.0 mi WSW 5.8 mph - N/A   Scattered Clouds
8:35 AM 33.4 °F 29.1 °F 28.4 °F 82% 29.89 in 10.0 mi West 4.6 mph - N/A   Clear
8:55 AM 35.2 °F 29.5 °F 29.3 °F 79% 29.90 in 10.0 mi West 6.9 mph - 0.03 in   Clear
9:15 AM 37.8 °F 30.7 °F 30.4 °F 75% 29.91 in 10.0 mi West 10.4 mph - N/A   Unknown
9:35 AM 40.1 °F 34.1 °F 30.9 °F 70% 29.92 in 10.0 mi WNW 9.2 mph - N/A   Clear
9:55 AM 42.1 °F 37.1 °F 31.6 °F 67% 29.93 in 10.0 mi NW 8.1 mph - N/A   Clear
10:15 AM 42.4 °F 36.5 °F 31.8 °F 66% 29.94 in 10.0 mi NW 10.4 mph - N/A   Clear
10:35 AM 43.0 °F 37.7 °F 32.2 °F 66% 29.94 in 10.0 mi NW 9.2 mph - N/A   Clear
10:55 AM 44.8 °F 38.3 °F 32.0 °F 61% 29.95 in 10.0 mi NW 13.8 mph 18.4 mph N/A   Clear
11:15 AM 45.0 °F 37.6 °F 32.0 °F 60% 29.96 in 10.0 mi NW 17.3 mph 27.6 mph N/A   Clear
11:35 AM 45.9 °F 39.4 °F 32.5 °F 60% 29.97 in 10.0 mi NW 15.0 mph 21.9 mph N/A   Clear
11:55 AM 46.6 °F - 32.9 °F 59% 29.97 in 10.0 mi NW 12.7 mph - N/A   Clear
12:15 PM 47.5 °F - 33.3 °F 58% 29.97 in 10.0 mi NW 10.4 mph - N/A   Clear
12:35 PM 48.2 °F - 32.5 °F 55% 29.97 in 10.0 mi NW 13.8 mph 20.7 mph N/A   Clear
12:55 PM 48.2 °F - 32.5 °F 55% 29.97 in 10.0 mi NW 12.7 mph - N/A   Clear
1:15 PM 48.7 °F - 32.4 °F 53% 29.97 in 10.0 mi WNW 12.7 mph - N/A   Clear
1:35 PM 49.3 °F - 31.6 °F 51% 29.97 in 10.0 mi NW 16.1 mph - N/A   Clear
1:55 PM 49.3 °F - 31.1 °F 50% 29.97 in 10.0 mi NW 13.8 mph - N/A   Clear
2:15 PM 49.5 °F - 30.7 °F 49% 29.98 in 10.0 mi WNW 12.7 mph - N/A   Clear
2:35 PM 49.5 °F - 30.2 °F 48% 29.98 in 10.0 mi NW 16.1 mph - N/A   Clear
2:55 PM 49.1 °F - 28.9 °F 46% 29.98 in 10.0 mi NW 15.0 mph 21.9 mph N/A   Clear
3:15 PM 49.3 °F - 29.3 °F 46% 29.99 in 10.0 mi NW 15.0 mph 19.6 mph N/A   Clear
3:35 PM 49.1 °F - 28.0 °F 44% 29.99 in 10.0 mi NW 11.5 mph - N/A   Clear
3:55 PM 49.1 °F - 28.0 °F 44% 29.99 in 10.0 mi NNW 9.2 mph - N/A   Clear
4:15 PM 48.6 °F - 27.5 °F 44% 30.00 in 10.0 mi NW 11.5 mph 17.3 mph N/A   Clear
4:35 PM 47.8 °F - 28.4 °F 47% 30.01 in 10.0 mi NW 6.9 mph - N/A   Clear
4:55 PM 47.3 °F - 28.4 °F 48% 30.00 in 10.0 mi NNW 4.6 mph - N/A   Clear
5:15 PM 46.4 °F - 27.9 °F 48% 30.00 in 10.0 mi Calm Calm - N/A   Clear
5:35 PM 44.4 °F - 27.0 °F 50% 30.01 in 10.0 mi Calm Calm - N/A   Clear
5:55 PM 43.3 °F 41.7 °F 26.4 °F 51% 30.01 in 10.0 mi North 3.5 mph - N/A   Clear
6:15 PM 42.3 °F - 26.4 °F 54% 30.02 in 10.0 mi Calm Calm - N/A   Clear
6:35 PM 43.0 °F - 25.7 °F 51% 30.03 in 10.0 mi Calm Calm - N/A   Clear
6:55 PM 40.8 °F 38.8 °F 26.2 °F 56% 30.03 in 10.0 mi NNE 3.5 mph - N/A   Clear
7:15 PM 40.3 °F 37.1 °F 26.1 °F 57% 30.04 in 10.0 mi North 4.6 mph - N/A   Clear
7:35 PM 40.5 °F 37.3 °F 26.4 °F 57% 30.04 in 10.0 mi NNE 4.6 mph - N/A   Clear
7:55 PM 39.7 °F 37.6 °F 26.6 °F 59% 30.04 in 10.0 mi NNE 3.5 mph - N/A   Clear
8:15 PM 40.1 °F - 26.6 °F 59% 30.05 in 10.0 mi Calm Calm - N/A   Clear
8:35 PM 39.4 °F 37.2 °F 26.4 °F 60% 30.05 in 10.0 mi East 3.5 mph - N/A   Clear
8:55 PM 38.7 °F - 26.4 °F 61% 30.06 in 10.0 mi Calm Calm - N/A   Clear
9:15 PM 38.7 °F 36.3 °F 26.4 °F 61% 30.06 in 10.0 mi ESE 3.5 mph - N/A   Clear
9:35 PM 38.7 °F 34.3 °F 26.6 °F 62% 30.06 in 10.0 mi East 5.8 mph - N/A   Clear
10:15 PM 36.9 °F 33.1 °F 26.6 °F 66% 30.06 in 10.0 mi ESE 4.6 mph - N/A   Clear
10:35 PM 37.4 °F 32.8 °F 27.0 °F 66% 30.06 in 10.0 mi East 5.8 mph - N/A   Clear
10:55 PM 35.8 °F 30.9 °F 27.0 °F 70% 30.06 in 10.0 mi East 5.8 mph - N/A   Clear
11:15 PM 34.2 °F 29.0 °F 26.6 °F 74% 30.07 in 10.0 mi SSE 5.8 mph - N/A   Clear
11:35 PM 33.8 °F 29.6 °F 26.6 °F 75% 30.07 in 10.0 mi SSE 4.6 mph - N/A   Clear
11:55 PM 34.0 °F 28.8 °F 26.8 °F 75% 30.06 in 10.0 mi SE 5.8 mph - N/A   Clear